Location: Bro?czyce
(50.2327°N, 20.1225°E)
Time: 07:48:06
(UTC+00:00)

Daily predictions for brighter satellites

Satellite Brightness Start Highest point End
(mag) Time Altitude Azimuth Time Altitude Azimuth Time Altitude Azimuth
Cosmos 2315 Rocket 4.1 19:28:55 10° S 19:35:14 73° E 19:41:31 10° NNE
Lacrosse 4 Rocket 3.8 19:32:09 10° WSW 19:35:47 29° NW 19:39:24 10° NNE
SL-24 R/B 4.4 19:31:46 10° S 19:36:01 75° WSW 19:40:47 10° NNW
Cosmos 2056 Rocket 3.6 19:31:12 10° S 19:36:30 64° ESE 19:41:54 10° NNE
Cosmos 1943 4.4 19:33:16 10° SW 19:38:43 48° NW 19:44:12 10° NNE
Cosmos 1709 Rocket 4.2 19:32:42 10° NNW 19:38:54 80° W 19:45:09 10° S
Cosmos 1025 Rocket 3.0 19:36:23 10° S 19:40:38 79° E 19:44:56 10° NNE
Cosmos 1455 Rocket 3.4 19:37:07 10° NNW 19:41:27 66° W 19:45:44 10° S
Cosmos 676 Rocket 4.1 19:37:59 10° NNW 19:43:22 88° ENE 19:48:39 10° SSE
Cosmos 1420 Rocket 4.1 19:39:19 10° S 19:44:28 60° ESE 19:49:41 10° NNE
ARIANE 5 R/B 3.6 19:41:08 10° SE 19:45:12 35° ENE 19:49:14 10° N
SL-8 R/B 3.7 19:43:40 10° W 19:48:27 73° S 19:53:17 10° E
Cosmos 2074 Rocket 4.4 19:42:58 10° N 19:49:07 52° ENE 19:55:11 10° SSE
Cosmos 1455 2.2 19:52:31 10° N 19:56:21 89° E 20:00:10 10° S
USA 245 3.8 19:52:09 10° S 19:56:48 66° WSW 20:00:33 10° NNW
Meteor 2-5 Rocket 3.9 19:51:30 10° SSW 19:57:01 80° WNW 20:02:37 10° N
Cosmos 1607 3.9 19:51:38 10° SSW 19:57:51 76° SE 20:04:03 10° NE
NOSS 2-1 (C) 4.0 19:53:50 10° NW 19:58:12 76° SW 20:04:14 10° SE
USA 267 3.8 19:53:00 10° ENE 19:58:49 33° SE 20:04:36 10° SSW
USA 32 4.0 19:53:58 10° S 19:59:11 83° E 20:04:27 10° N
Ariane Rocket 4.1 19:55:25 10° S 20:00:15 42° W 20:05:06 10° NNW
Cosmos 1954 Rocket 4.4 19:56:36 10° NNW 20:01:50 62° WSW 20:06:59 10° S
NOSS 2-1 (D) 4.2 20:04:09 10° NW 20:08:33 66° SW 20:14:20 12° SSE
Cosmos 1980 Rocket 3.7 20:03:50 10° NNW 20:08:48 29° NE 20:13:43 10° ESE
Cosmos 1850 Rocket 4.2 20:05:10 10° NNW 20:10:23 63° ENE 20:15:04 12° SE
Cosmos 1536 Rocket 3.7 20:06:33 10° S 20:10:46 56° E 20:15:03 10° NNE
Cosmos 2228 3.5 20:07:38 10° N 20:11:45 47° ENE 20:15:17 13° SSE
Cosmos 1697 Rocket 3.3 20:06:18 10° NNW 20:11:45 48° NE 20:17:01 11° SE
SPOT 5 2.8 20:07:28 10° S 20:11:55 72° WSW 20:16:16 10° NNW
H-2A R/B 4.2 20:08:16 10° N 20:12:03 29° WNW 20:15:53 10° WSW
Cosmos 2154 Rocket 4.3 20:07:43 10° N 20:13:53 56° ENE 20:19:26 12° SSE
Cosmos 1606 Rocket 4.4 20:12:25 10° N 20:16:26 36° ENE 20:19:49 13° SE
Cosmos 1975 Rocket 4.5 20:13:01 10° SW 20:17:13 40° WNW 20:21:25 10° N
Tiangong 3.1 20:15:40 10° SW 20:17:29 14° SSW 20:18:24 13° S
Cosmos 1703 3.5 20:16:10 11° S 20:19:39 50° E 20:23:24 10° NNE
Cosmos 1656 3.7 20:16:10 10° NNW 20:21:39 83° WSW 20:26:30 14° SSE
Cosmos 2084 3.3 20:19:00 10° SW 20:22:50 79° NW 20:26:45 10° NE
ASTRO F (AKARI) 4.5 20:25:38 15° SSE 20:28:28 82° ENE 20:32:01 10° NNW
USA 276 2.1 20:28:10 10° SW 20:31:03 47° SSE 20:33:58 10° E
Spot 2 Rocket 4.2 20:26:07 10° S 20:31:04 52° W 20:36:04 10° NNW
ATLAS 2AS CENTAUR R/B 3.3 20:25:31 10° NW 20:32:17 48° WSW 20:37:59 13° S
Meteor 1-21 Rocket 4.5 20:27:37 12° SSE 20:32:35 52° E 20:38:05 10° NNE
USA 234 3.4 20:28:12 10° ESE 20:34:45 78° NNE 20:41:20 10° WNW
Lacrosse 5 2.7 20:32:34 10° WNW 20:37:18 39° SW 20:40:57 16° SSE
Cosmos 1452 Rocket 3.5 20:32:51 10° SSW 20:38:04 70° ESE 20:43:19 10° NNE
X-37B 1.3 20:38:33 10° SW 20:41:00 27° S 20:41:44 23° SSE
Cosmos 1833 Rocket 3.0 20:36:05 10° S 20:41:17 46° ESE 20:46:38 10° NE
Cosmos 1726 Rocket 4.0 20:37:06 10° N 20:41:19 48° ENE 20:44:18 18° SE
Terra 2.3 20:38:02 12° S 20:42:24 56° W 20:47:07 10° NNW
Cosmos 1408 4.2 20:41:28 15° ESE 20:42:51 19° E 20:45:19 10° NE
SAR-Lupe-4 4.2 20:41:15 10° NNE 20:44:39 40° E 20:46:42 20° SSE
Cosmos 2184 Rocket 4.2 20:39:57 10° NNW 20:46:06 69° W 20:51:50 12° S
FALCON 9 DEB 3.9 20:44:07 10° W 20:47:19 50° N 20:50:31 10° ENE
Cosmos 2360 4.3 20:43:56 10° NNW 20:49:43 82° ENE 20:54:09 18° SSE
Cosmos 1110 Rocket 4.1 20:45:31 12° S 20:50:20 58° ESE 20:55:33 10° NNE
Cosmos 724 4.4 20:48:00 10° SW 20:53:49 79° NW 20:59:38 10° NE
ALOS 2 4.2 20:55:22 12° ESE 20:58:33 25° ENE 21:02:09 10° N
Lacrosse 5 rocket 3.6 20:58:19 10° W 21:00:01 12° SW 21:01:44 10° SSW
SAR-Lupe-1 4.0 20:57:15 10° NNE 21:00:50 70° ESE 21:03:10 20° S
Meteor 2-1 Rocket 4.2 20:58:24 10° NNW 21:03:56 80° W 21:08:05 18° S
Cosmos 2082 Rocket 3.1 21:01:01 19° SSE 21:04:09 31° ESE 21:09:05 10° NE
Cosmos 2341 Rocket 4.2 20:58:18 10° N 21:04:38 63° ENE 21:09:13 19° SSE
ERS-1 Rocket 4.5 21:04:09 10° SSW 21:08:31 29° W 21:12:54 10° NW
RESURS DK-1 3.0 21:06:46 10° NW 21:10:44 46° WSW 21:13:07 21° S
Cosmos 2058 Rocket 3.2 21:10:48 10° N 21:15:11 63° ENE 21:17:48 23° SSE
Spot 4 4.2 21:13:36 20° SE 21:16:44 57° ENE 21:21:26 10° N
Cosmos 1892 Rocket 3.6 21:16:25 22° S 21:19:12 70° E 21:23:35 10° NNE
ARIANE 5 R/B 4.0 21:18:10 12° SSW 21:21:40 30° W 21:25:37 10° NNW
Cosmos 968 Rocket 3.5 21:18:47 10° NNW 21:24:00 81° ENE 21:27:23 22° SSE
Cosmos 192 4.5 21:21:44 21° S 21:24:49 56° ESE 21:29:38 10° NNE
Cosmos 1825 3.4 21:24:12 22° SE 21:25:34 28° E 21:28:49 10° NNE
Cosmos 2344 4.3 21:20:12 10° NW 21:28:59 77° SW 21:38:57 17° SSE
ERS-2 4.1 21:28:33 10° NE 21:30:41 15° E 21:31:31 14° ESE
SL-8 R/B 4.0 21:26:08 10° W 21:30:45 46° SSW 21:33:28 23° SE
GP-B 3.1 21:26:43 10° N 21:31:11 85° W 21:33:53 23° S
Meteor 1-27 4.4 21:29:14 10° N 21:34:47 64° ENE 21:38:20 23° SSE
Cosmos 1626 Rocket 4.4 21:33:17 24° SE 21:35:13 36° E 21:39:12 10° NNE
ADEOS Rocket 3.7 21:33:32 19° SE 21:38:56 66° ENE 21:46:33 10° N
ASTEX 1 3.7 21:34:08 10° N 21:39:07 67° W 21:42:45 18° SSW
Cosmos 2181 Rocket 4.1 21:35:23 22° S 21:39:25 65° E 21:45:35 10° NNE
Cosmos 1869 3.6 21:36:05 10° N 21:39:53 53° ENE 21:41:42 28° SE
USA 267 3.2 21:35:47 10° ENE 21:42:22 88° SSE 21:48:56 10° WSW
COSMOS 2406 3.2 21:37:53 16° SSW 21:42:34 78° ESE 21:48:20 10° NNE
Cosmos 2369 3.8 21:38:57 10° NNW 21:44:41 69° WSW 21:48:09 24° SSE
SL-16 R/B 3.3 21:40:44 10° NNW 21:46:04 40° NE 21:51:18 10° ESE
Okean 1-7 Rocket 3.7 21:50:04 28° SSE 21:52:15 63° E 21:56:42 10° NNE
Cosmos 1633 3.8 21:51:28 24° ESE 21:52:25 27° E 21:55:24 10° NNE
Cosmos 1980 Rocket 2.3 21:47:37 10° NNW 21:53:17 67° WSW 21:56:37 25° S
Cosmos 1697 Rocket 3.7 21:50:33 10° NW 21:55:35 35° WSW 21:58:44 20° SSW
Cosmos 1486 Rocket 4.1 21:50:47 10° NNW 21:56:00 71° ENE 21:59:16 23° SE
BREEZE-M DEB (TANK) 4.0 21:44:37 10° SW 21:56:11 52° SSE 21:59:49 10° E
Cosmos 1821 Rocket 4.4 21:50:58 10° N 21:57:09 55° ENE 22:01:16 21° SE
Cosmos 1892 2.8 21:55:58 28° SSW 21:57:50 69° WNW 22:01:36 10° N
SJ 16-02 2.9 21:54:57 10° N 21:58:50 29° ENE 22:02:17 12° ESE
Cosmos 2084 Rocket 3.6 21:57:34 10° NW 22:01:20 48° SW 22:02:43 33° S
Meteor 1-11 4.4 21:57:30 19° SSW 22:01:39 69° WNW 22:07:15 10° N
USA 276 1.8 22:03:39 10° W 22:06:40 89° S 22:09:41 10° E
In-Cosmos 22 Rocket 4.2 22:06:27 23° SSW 22:10:04 84° WNW 22:15:35 10° NNE
Cosmos 1992 Rocket 4.2 22:08:11 27° S 22:10:55 58° ESE 22:16:04 10° NNE
Cosmos 807 4.1 22:10:11 10° N 22:13:38 88° W 22:14:27 46° S
Nadezhda 3 Rocket 4.4 22:11:41 23° SSE 22:15:17 50° E 22:21:12 10° NNE
Cosmos 1408 3.8 22:15:25 19° SW 22:17:19 32° WNW 22:20:27 10° N
USA 234 3.7 22:14:24 24° SSE 22:18:05 44° SW 22:24:21 10° WNW
Cosmos 1354 Rocket 4.5 22:14:44 10° NNW 22:20:00 58° ENE 22:23:40 19° SE
Cosmos 1758 Rocket 3.8 22:20:59 31° SSE 22:22:50 56° E 22:27:08 10° NNE
FALCON 9 DEB 3.1 22:20:32 10° WNW 22:23:49 75° NNE 22:26:47 12° ESE
Cosmos 2322 Rocket 2.8 22:19:45 10° NNW 22:25:19 53° NE 22:30:12 13° SE
Cosmos 1833 Rocket 4.0 22:20:08 10° WSW 22:25:20 38° NW 22:30:35 10° NNE
Cosmos 2221 4.4 22:22:03 10° NNE 22:25:32 23° ENE 22:28:39 12° ESE
Cosmos 2333 Rocket 4.0 22:20:51 10° NNW 22:25:48 28° NE 22:30:43 10° ESE
PSLV R/B 4.4 22:22:29 10° NNE 22:27:05 45° E 22:29:15 27° SSE
Cosmos 1867 3.9 22:23:25 10° NW 22:28:42 50° WSW 22:31:17 28° S
Cosmos 2278 3.9 22:23:44 10° NW 22:29:21 59° WSW 22:32:24 27° S
ATLAS 5 CENTAUR R/B 1.7 22:30:25 35° SSE 22:31:18 42° SE 22:35:15 10° NE
Cosmos 1812 Rocket 3.6 22:27:53 10° NNW 22:32:23 76° W 22:34:25 32° S
Cosmos 1503 Rocket 4.0 22:27:37 10° NNW 22:32:59 85° ENE 22:36:06 25° SSE
ALOS 2 3.3 22:32:45 27° SSW 22:34:41 43° W 22:38:54 10° NNW
Cosmos 1602 Rocket 3.7 22:45:32 29° SSW 22:47:39 64° WNW 22:51:57 10° N
Cosmos 2082 Rocket 2.8 22:42:48 12° SW 22:47:59 54° NW 22:53:36 10° NNE
Cosmos 1777 Rocket 4.3 22:42:55 10° NNW 22:48:13 65° ENE 22:51:59 19° SE
H-2A R/B 4.4 22:44:39 10° N 22:48:38 42° WNW 22:51:09 20° SW
Cosmos 1825 3.9 22:58:50 16° WSW 23:00:54 25° WNW 23:04:04 10° NNW
Cosmos 2237 4.2 22:56:49 10° NNW 23:02:36 90° ENE 23:06:39 20° SSE
ERS-2 2.7 23:00:50 10° N 23:04:19 49° WNW 23:05:53 28° SW
Cosmos 2360 Rocket 2.5 22:59:11 10° NNW 23:04:52 67° ENE 23:09:53 13° SE
Cosmos-2242 3.7 23:02:32 10° NNW 23:06:33 42° W 23:08:16 28° SW
SL-16 R/B 4.2 23:01:21 10° ESE 23:06:36 29° ENE 23:11:52 10° N
SL-4 R/B 4.0 23:07:38 13° ESE 23:07:38 13° ESE 23:08:41 10° ESE
Cosmos 1953 Rocket 3.7 23:09:48 30° S 23:11:56 68° E 23:16:21 10° NNE
COSMOS 2428 4.4 23:08:23 10° NNW 23:13:28 31° NE 23:18:31 10° ESE
Cosmos 1606 3.4 23:13:20 10° NNW 23:16:58 41° W 23:18:18 30° SW
Cosmos 2058 2.9 23:16:21 31° SSW 23:18:16 75° WNW 23:22:28 10° N
Cosmos 1934 Rocket 3.9 23:12:28 10° NNW 23:18:34 78° W 23:22:23 24° S
ADEOS Rocket 4.5 23:20:28 18° SW 23:24:54 32° W 23:31:37 10° NNW
Cosmos 1825 Rocket 3.8 23:22:58 28° SSW 23:25:06 60° WNW 23:29:24 10° N
USA 267 4.0 23:18:50 10° ENE 23:25:10 54° NNW 23:31:30 10° W
Cosmos 1633 4.3 23:25:15 16° WSW 23:26:55 23° WNW 23:29:43 10° NNW
SL-16 R/B 2.7 23:24:54 10° NW 23:30:15 44° WSW 23:33:07 25° SSW
Thor Agena Rocket 4.4 23:25:30 10° NNE 23:30:26 41° E 23:33:38 20° SSE
SL-19 R/B 4.3 23:31:17 34° S 23:32:41 61° WSW 23:36:44 10° NNW
CENTAUR R/B 4.4 23:30:22 10° SE 23:33:22 14° ESE 23:36:37 10° ENE
Cosmos 1339 Rocket 4.5 23:31:03 24° S 23:35:04 86° W 23:41:16 10° N
Cosmos 972 Rocket 4.0 23:30:11 10° NNW 23:35:15 79° WSW 23:38:53 21° SSE
Cosmos 1980 Rocket 4.3 23:34:24 10° WNW 23:36:10 11° W 23:37:56 10° WSW
SJ 16-02 2.0 23:33:21 10° NW 23:37:29 38° WSW 23:39:13 27° SSW
Cosmos 1842 Rocket 3.6 23:35:49 10° N 23:40:21 86° E 23:43:02 24° SSE
Gbstr 26 Del rocket 4.3 23:39:34 25° S 23:41:14 31° SE 23:46:06 10° ENE
USA 276 2.0 23:39:20 10° W 23:42:17 52° SSW 23:45:13 10° ESE
Cosmos 2219 Rocket 2.7 23:39:38 10° NNW 23:45:17 62° ENE 23:50:54 10° SE
CZ-2D R/B 3.1 23:44:57 10° NNE 23:49:47 37° E 23:53:35 15° SSE
Cosmos 1340 Rocket 3.2 23:48:44 26° SW 23:50:39 51° WNW 23:54:31 10° N
